www.pogodaiklimat.ru

Погода и климат >> Архив погоды >> Россия >> Красноярский край >> Ермаковское


ПОГОДА в Ермаковском

  • Прогноз погоды в Ермаковском
  • Монитор погоды в Ермаковском

АРХИВ ПОГОДЫ в Ермаковском

Время (UTC), дата Ветер
(напр.,м/с)
 
Видим.   Явления Облачность Т
(С)
Тd
(С)
f
(%)
Тe
(С)
Тes
(С)
Комфортность P
(гПа)
Po
(гПа)
Тmin
(С)
Tmax
(С)
R
(мм)
R24
(мм)
S
(см)
21 15.04 С 1 н/о ливневой снег 10/10 600 м
[Cb cap]
-0.9 -1.8 94 -3 -3 1001.6 965.1
00 16.04 З 2 500 м ливневой снег 10/10 600 м
[Cb cap]
-0.9 -1.8 94 -5 -5 1001.8 965.3 -0.9 10 18
03 16.04 З 3 500 м ливневой снег 10/10 600 м
[Cb cap]
-0.5 -2.0 90 -5 -5 1002.2 965.7
06 16.04 З 4 2000 м слаб. ливневой снег 10/10 600 м
[Cb cap]
+0.1 -2.6 82 -5 -5 1006.9 970.3
09 16.04 З 3 10 км слаб. ливневой снег 10/10 600 м
[Cb cap]
+1.3 -3.2 72 -3 -3 1009.5 973.0
12 16.04 ЮЗ 2 20 км {ливн. осадки} 9/4 1000 м
[Sc Ac lent Cc]
+1.2 -3.3 72 -2 -2 1011.7 975.2 +2.0 4
15 16.04 штиль 0 н/о 10/10 1000 м
[Sc]
-0.5 -2.9 84 -2 -2 1013.9 977.0
18 16.04 СВ 1 н/о 10/10 600 м
[Cb cap]
-1.3 -3.2 87 -3 -3 1015.3 978.2
21 16.04 штиль 0 н/о 4/0
[Ac lent]
-1.9 -2.2 98 -3 -3 1016.9 979.7
00 17.04 штиль 0 10 км 3/3 1000 м
[Sc]
-4.3 -5.5 91 -5 -5 1018.4 980.8 -5.0 9
03 17.04 В 2 20 км ясно +2.5 -3.1 67 -0 +8 1016.6 980.0
06 17.04 В 1 20 км ясно +5.7 -4.1 49 +5 +20 опасность
простуды
1014.5 978.4
09 17.04 З 2 20 км 3/3 1000 м
[Sc Ac lent]
+8.8 -3.5 42 +8 +13 1012.4 976.7
12 17.04 З 2 20 км ясно +7.9 -6.3 36 +7 +7 1010.9 975.1 +9.4
15 17.04 штиль 0 н/о ясно +0.3 -3.4 76 -1 -1 1010.3 973.6
18 17.04 штиль 0 н/о 4/0
[Ci fib]
-2.1 -4.4 84 -3 -3 1010.0 972.9
21 17.04 СВ 1 н/о ясно -4.2 -4.4 99 -7 -7 1008.7 971.4
00 18.04 СВ 1 20 км 9/9 1000 м
[Sc]
-2.7 -4.0 91 -5 -5 1003.7 966.8 -4.6 0
03 18.04 В 2 20 км 8/0
[Ac lent Cs]
+6.1 -0.4 63 +4 +9 996.7 961.3
06 18.04 З 10-18
{19}
20 км 6/3 600 м
[Cb cap Ci]
+10.3 +0.5 51 +6 +7 998.0 963.1
09 18.04 З 8-16
{23}
2000 м ливневой снег 10/10 600 м
[Cb cap]
-0.7 -4.2 77 -8 -8 1010.1 973.3
12 18.04 З 9-16
{19}
20 км {ливн. осадки} 3/3 1000 м
[Sc diur, vesp]
+0.9 -9.7 45 -6 -6 1013.4 976.6 +16.9 0.4
15 18.04 З 10-18
{20}
н/о 1/1 1000 м
[Sc]
-1.7 -13.1 41 -10 -10 1018.0 980.7
18 18.04 З 7-15
{20}
н/о ясно -4.4 -14.7 44 -12 -12 1024.1 986.3
21 18.04 З 7-13
{16}
н/о 5/0
[Ci fib]
-5.0 -12.3 57 -13 -13 1027.0 988.9
00 19.04 З 6-13
{16}
20 км 4/3 1000 м
[Sc Ci fib]
-5.2 -14.3 49 -12 -12 1030.0 991.8 -5.6
03 19.04 З 8-14
{16}
20 км 9/9 600 м
[Cb cap]
-2.7 -13.9 42 -10 -10 1032.0 994.0
06 19.04 З 5-11
{14}
20 км 3/3 1000 м
[Sc]
+0.5 -12.7 36 -4 0 1030.7 993.3
09 19.04 З 3
{11}
20 км 1/1 1000 м
[Sc]
+3.3 -10.8 35 0 +6 1028.1 991.3
12 19.04 ЮВ 1 20 км 3/0
[Ci]
+1.6 -11.5 37 +1 +1 1025.8 988.7 +3.0
15 19.04 СВ 1 н/о 8/0
[Ac lent Ci fib]
-3.3 -8.0 70 -5 -5 1024.2 986.5
18 19.04 штиль 0 н/о 6/0
[Ac lent]
-4.8 -7.6 81 -6 -6 1021.4 983.5
21 19.04 штиль 0 н/о 10/0
[Ac As]
-6.0 -8.3 84 -7 -7 1019.3 981.4
00 20.04 штиль 0 10 км 9/0
[Cc]
-5.4 -8.3 80 -6 -5 1017.3 979.6 -6.5
03 20.04 С 1 20 км 10/0
[Ac lent Cc]
+0.7 -9.8 45 -0 +6 1015.4 978.5
06 20.04 З 1 20 км 9/0
[Ac lent Cc]
+6.1 -8.2 35 +6 +14 1012.3 976.2
09 20.04 З 2 20 км 10/0
[Ac und]
+5.2 -7.0 41 +3 +6 1010.7 974.7
12 20.04 З 2 10 км 10/0
[As op]
+3.4 -7.3 45 +1 +1 1010.6 974.3 +6.7
15 20.04 ЮЗ 1 н/о 10/0
[As op]
+1.8 -6.7 53 +1 +1 1010.6 973.9
18 20.04 З 1 н/о слаб. снег 10/0
[As op]
+0.9 -5.1 64 -1 -1 1009.7 973.0
21 20.04 штиль 0 н/о слаб. снег 10/0
[As op]
-0.7 -1.0 98 -2 -2 1009.4 972.6
00 21.04 штиль 0 2000 м дымка {снег} 10/0
[As op]
-0.5 -0.8 98 -2 -2 1009.8 973.0 -1.0 0.8 2
03 21.04 З 4 10 км в посл. час снег 10/3 1000 м
[Sc Ac As]
+1.7 -0.2 87 -3 -2 1010.7 974.2
06 21.04 З 3 10 км в посл. час ливневой дождь 10/10 600 м
[Cb cap]
+2.1 +0.2 87 -2 -2 1013.7 977.2
09 21.04 СЗ 2 20 км 8/8 600 м
[Cb cap]
+4.4 -1.0 68 +2 +3 1014.4 978.1
12 21.04 З 4
{12}
20 км {ливн. осадки} 8/4 600 м
[Cb cap Ac cast Cc]
+5.5 -5.2 46 +2 +2 1015.2 979.0 +6.4 0.7
15 21.04 З 4-11
{11}
н/о 8/8 600 м
[Cb cap]
+3.8 -3.8 58 -0 -0 1017.6 981.1
18 21.04 З 2
{10}
н/о 10/10 1000 м
[Sc]
+3.4 -5.2 53 +1 +1 1019.7 983.1
21 21.04 З 1 н/о 10/10 1000 м
[Sc]
+2.8 -4.9 57 +2 +2 1020.5 983.7
00 22.04 З 1 4000 м слаб. ливневой снег 10/10 600 м
[Cb cap]
+0.6 -0.2 94 -1 -1 1022.8 985.7 +0.4 0.7 2
03 22.04 Ю 1 10 км слаб. ливневой снег 10/10 600 м
[Cb cap]
+0.9 -1.7 83 -1 -1 1024.7 987.5 -0.5
06 22.04 штиль 0 20 км слаб. ливневой снег 10/10 600 м
[Cb cap]
+3.5 -3.5 60 +3 +3 1025.0 988.2
09 22.04 С 3 20 км {ливн. осадки} 8/8 600 м
[Cb cap]
+5.4 -5.0 47 +3 +4 1024.4 987.8
12 22.04 Ю 1 20 км {ливн. осадки} 3/3 1000 м
[Sc]
+7.1 -7.8 34 +7 +8 1024.2 987.8 +7.4 0.3
15 22.04 Ю 1 н/о ясно -0.5 -5.0 72 -2 -2 1026.3 988.9

 

Местоположение метеостанции Ермаковское (Красноярский край, Россия): широта 53.30 долгота 92.42 высота над уровнем моря 298 м.

В архиве по умолчанию представлена погода в Ермаковском за последнюю неделю. Архивные данные за месяц целиком и за предыдущие месяцы, начиная с января 2011 года, Вы можете получить, выбрав интересующий диапазон дат из раскрывающегося списка и нажав кнопку "Ввод!".


*Определитесь, кто Вы:
робот инопланетянин человек

Внимание! Время в таблицах - всемирное. Для получения местного времени необходимо прибавить поправку, которая равна 7 ч.

Смотрите также архив погоды в соседних городах и на ближайших метеорологических станциях:

Погода в Каратузском (Красноярский край, Россия) (44 км)
Погода в Теси (Красноярский край, Россия) (65 км)
Погода в Минусинске (Красноярский край, Россия) (67 км)
Погода в Курагино (Красноярский край, Россия) (69 км)
Погода в Саяногорске (Хакасия, Россия) (70 км)
Погода в Оленьей Речке (Красноярский край, Россия) (78 км)
Погода в Черемушках (Хакасия, Россия) (87 км)
Погода в Карловом Створе (Хакасия, Россия) (88 км)
Погода в Хакасской (Хакасия, Россия) (90 км)
Погода в Бее (Хакасия, Россия) (104 км)

Пояснения к столбцам:

Ветер - указаны скорость ветра в м/с - средняя за 10 мин, порывы в срок и между сроками (в фигурных скобках) и направление, откуда дует ветер: С - северный, СВ - северо-восточный, В - восточный, ЮВ - юго-восточный, Ю - южный, ЮЗ - юго-западный, З - западный, СЗ - северо-западный.
Видимость - горизонтальная дальность видимости в метрах или километрах. При видимости от 1 до 10 км при отсутствии осадков обычно наблюдается дымка, при ухудшении видимости до 1 км и менее - туман. В сухую погоду видимость может ухудшаться дымом, пылью или мглою.
Явления - указаны атмосферные явления, наблюдавшиеся в срок или в последний час перед сроком; фигурными скобками обозначены явления, наблюдавшиеся между сроками (за 1-3 часа до срока); квадратными скобками обозначены град или гололедные отложения с указанием их диаметра в мм.
Облачность - указаны через наклонную черту общая и нижняя облачность в баллах и высота нижней границы облаков в метрах; квадратными скобками обозначены формы облаков: Ci - перистые, Cs - перисто-слоистые, Cc - перисто-кучевые, Ac - высококучевые, As - высокослоистые, Sc - слоисто-кучевые, Ns - слоисто-дождевые, Cu - кучевые, Cb - кучево-дождевые. Подробнее классификацию облаков см. в Атласе облаков (PDF).
T - Температура воздуха - температура, измеренная на высоте 2 м над землей.
Td - Температура точки росы - температура, при понижении до которой содержащийся в воздухе водяной пар достигнет насыщения.
f - Относительная влажность воздуха - влажноcть воздуха, измеренная на высоте 2 м над землей.
Te - Эффективная температура - температура, которую ощущает одетый по сезону человек в тени. Характеристика душности погоды. При расчете учитывается влияние влажности воздуха и скорости ветра на теплоощущения человека.
Tes - Эффективная температура на солнце - температура, которую ощущает человек, с поправкой на солнечный нагрев. Характеристика знойности погоды. Зависит от высоты солнца над горизонтом, облачности и скорости ветра. Ночью, в пасмурную погоду, а также при ветре 12 м/с и более поправка равна нулю.
P - Атмосферное давление - приведенное к уровню моря атмосферное давление.
Po - Атмосферное давление - измеренное на уровне метеостанции атмосферное давление.
Tmin - Минимальная температура - минимум температуры воздуха на высоте 2 м над землей.
Tmax - Максимальная температура - максимум температуры воздуха на высоте 2 м над землей.
R - Количество осадков - Количество выпавших осадков за период времени, мм. При наведении курсора мыши на число - период времени, за который выпало указанное количество осадков.
R24 - Количество осадков - Количество выпавших осадков за 24 часа, мм.
S - Снежный покров - Высота снежного покрова, см. При наведении курсора мыши на число - состояние снежного покрова и степень покрытия местности в баллах.